TimeEDT,TemperatureF,Dew PointF,Humidity,Sea Level PressureIn,VisibilityMPH,Wind Direction,Wind SpeedMPH,Gust SpeedMPH,PrecipitationIn,Events,Conditions,WindDirDegrees,DateUTC
12:53 AM,46.0,37.9,73,30.18,10.0,Calm,Calm,-,N/A,,Clear,0,2012-10-12 04:53:00
2:53 AM,44.1,37.9,79,30.20,10.0,Calm,Calm,-,N/A,,Clear,0,2012-10-12 06:53:00
4:53 AM,48.0,39.0,71,30.24,10.0,NNW,4.6,-,N/A,,Clear,340,2012-10-12 08:53:00
5:53 AM,45.0,39.9,82,30.27,10.0,North,4.6,-,N/A,,Clear,360,2012-10-12 09:53:00
6:53 AM,46.0,41.0,83,30.28,10.0,NE,4.6,-,N/A,,Clear,40,2012-10-12 10:53:00
7:53 AM,45.0,39.9,82,30.31,10.0,NNE,5.8,-,N/A,,Scattered Clouds,30,2012-10-12 11:53:00
8:53 AM,46.9,39.9,77,30.34,10.0,NE,6.9,16.1,N/A,,Overcast,50,2012-10-12 12:53:00
9:53 AM,46.9,39.0,74,30.38,10.0,ENE,6.9,-,N/A,,Overcast,60,2012-10-12 13:53:00
10:17 AM,46.4,37.4,71,30.38,10.0,NE,11.5,20.7,N/A,,Overcast,40,2012-10-12 14:17:00
10:53 AM,48.0,37.0,66,30.40,10.0,ENE,9.2,-,N/A,,Mostly Cloudy,70,2012-10-12 14:53:00
11:53 AM,51.1,37.0,59,30.40,10.0,NE,10.4,16.1,N/A,,Clear,50,2012-10-12 15:53:00
1:53 PM,54.0,37.0,53,30.38,10.0,ESE,5.8,-,N/A,,Clear,110,2012-10-12 17:53:00
2:53 PM,55.0,36.0,49,30.36,10.0,Variable,5.8,-,N/A,,Clear,0,2012-10-12 18:53:00
3:53 PM,57.0,35.1,44,30.34,10.0,NE,6.9,-,N/A,,Clear,50,2012-10-12 19:53:00
4:53 PM,57.0,35.1,44,30.33,10.0,ESE,8.1,-,N/A,,Clear,110,2012-10-12 20:53:00
6:53 PM,55.0,32.0,42,30.33,10.0,ENE,4.6,-,N/A,,Clear,60,2012-10-12 22:53:00
7:53 PM,52.0,33.1,49,30.34,10.0,ENE,3.5,-,N/A,,Clear,60,2012-10-12 23:53:00
8:53 PM,48.9,32.0,52,30.34,10.0,ENE,3.5,-,N/A,,Clear,70,2012-10-13 00:53:00
10:53 PM,46.0,30.0,54,30.33,10.0,East,3.5,-,N/A,,Clear,90,2012-10-13 02:53:00
11:53 PM,44.1,30.9,60,30.32,10.0,East,3.5,-,N/A,,Clear,90,2012-10-13 03:53:00